Location: Oberwangen
(47.4286°N, 8.9679°E)
Time: 08:37:44
(UTC+00:00)

NOSS 3-2 (C) - Pass Details

Date: 20 June 2021
Orbit: 778 x 1434 km, 63.4° (Epoch: 14 July)

Event Time Altitude Azimuth Distance (km) Brightness Sun altitude
Rises 20:02:45 0° 237° (WSW) 3,355 6.5 -5.7°
Reaches altitude 10° 20:05:07 10° 242° (WSW) 2,480 5.9 -6.0°
Maximum altitude 20:10:43 53° 319° (NW) 1,138 4.4 -6.7°
Drops below altitude 10° 20:17:15 10° 36° (NE) 2,884 6.1 -7.4°
Sets 20:20:13 0° 41° (NE) 3,950 6.8 -7.8°
